Syracuse, NY

8:56 AM EDT on May 26, 2018 (GMT -0400)
Syracuse Hancock International

Weather History for KSYR - May, 2012

Change the Weather History Date:

Thursday, May 17, 2012

  Actual Average Record
Temperature  
Mean Temperature 52 °F 58 °F  
Max Temperature 63 °F 69 °F 91 °F (1977)
Min Temperature 41 °F 47 °F 30 °F (1983)
Degree Days  
Heating Degree Days 13 8  
Month to date heating degree days 92 170  
Since 1 July heating degree days 5100 6505  
Cooling Degree Days 0 1  
Month to date cooling degree days 4 7  
Year to date cooling degree days 11 11  
Growing Degree Days 2 (Base 50)    
Moisture  
Dew Point 36 °F    
Average Humidity 60    
Maximum Humidity 86    
Minimum Humidity 34    
Precipitation  
Precipitation 0.00 in 0.11 in 0.91 in (1916)
Month to date precipitation 2.62 1.70  
Year to date precipitation 12.11 12.41  
Snow  
Snow 0.00 in 0.00 in 1.20 in (1973)
Month to date snowfall 0.0 0.1  
Since 1 July snowfall 50.6 123.8  
Snow Depth 0.00 in    
Sea Level Pressure  
Sea Level Pressure 30.14 in    
Wind  
Wind Speed 6 mph (NW)    
Max Wind Speed 17 mph    
Max Gust Speed 20 mph    
Visibility 10 miles    
Events      
T = Trace of Precipitation, MM = Missing Value Source: NWS Daily Summary

Daily Weather History Graph

Daily Weather History Graph

Search for Another Location

Airport or City:

Astronomy

May. 17, 2012 Rise Set
Actual Time 5:38 AM EDT 8:23 PM EDT
Civil Twilight 5:05 AM EDT 8:57 PM EDT
Nautical Twilight 4:23 AM EDT 9:38 PM EDT
Astronomical Twilight 3:36 AM EDT 10:26 PM EDT
Moon 3:40 AM EDT (5/17) 5:30 PM EDT (5/17)
Length of Visible Light 15h 51m
Length of Day
14h 45m
Waning Crescent, 10% of the Moon is Illuminated
May 17
Waning Crescent
May 20
New
May 28
First Quarter
Jun 4
Full
Jun 11
Last Quarter

Hourly Weather History & Observations

Time (EDT) Temp. Windchill Dew Point Humidity Pressure Visibility Wind Dir Wind Speed Gust Speed Precip Events Conditions
12:54 AM 46.9 °F - 37.9 °F 71% 30.06 in 10.0 mi West 5.8 mph - N/A   Partly Cloudy
1:54 AM 45.0 °F 41.8 °F 37.9 °F 76% 30.06 in 10.0 mi West 5.8 mph - N/A   Partly Cloudy
2:54 AM 45.0 °F 43.5 °F 37.0 °F 74% 30.06 in 10.0 mi WNW 3.5 mph - N/A   Partly Cloudy
3:54 AM 42.1 °F 38.4 °F 37.0 °F 82% 30.07 in 10.0 mi WNW 5.8 mph - N/A   Partly Cloudy
4:54 AM 41.0 °F 37.1 °F 37.0 °F 86% 30.08 in 10.0 mi WNW 5.8 mph - N/A   Partly Cloudy
5:54 AM 41.0 °F 38.0 °F 37.0 °F 86% 30.10 in 10.0 mi West 4.6 mph - N/A   Partly Cloudy
6:54 AM 46.0 °F 44.8 °F 39.0 °F 76% 30.13 in 10.0 mi WNW 3.5 mph - N/A   Partly Cloudy
7:54 AM 50.0 °F - 39.9 °F 68% 30.15 in 10.0 mi North 3.5 mph - N/A   Partly Cloudy
8:54 AM 53.1 °F - 41.0 °F 64% 30.16 in 10.0 mi North 8.1 mph - N/A   Scattered Clouds
9:54 AM 55.9 °F - 39.9 °F 55% 30.17 in 10.0 mi NNW 10.4 mph - N/A   Scattered Clouds
10:54 AM 57.0 °F - 35.1 °F 44% 30.17 in 10.0 mi North 9.2 mph - N/A   Scattered Clouds
11:54 AM 60.1 °F - 34.0 °F 38% 30.18 in 10.0 mi NNW 12.7 mph 17.3 mph N/A   Scattered Clouds
12:54 PM 60.1 °F - 34.0 °F 38% 30.17 in 10.0 mi North 8.1 mph 17.3 mph N/A   Scattered Clouds
1:54 PM 61.0 °F - 34.0 °F 36% 30.17 in 10.0 mi NNW 9.2 mph 16.1 mph N/A   Scattered Clouds
2:54 PM 62.1 °F - 34.0 °F 35% 30.17 in 10.0 mi NW 10.4 mph - N/A   Scattered Clouds
3:54 PM 61.0 °F - 33.1 °F 35% 30.16 in 10.0 mi NW 11.5 mph 17.3 mph N/A   Scattered Clouds
4:54 PM 61.0 °F - 35.1 °F 38% 30.15 in 10.0 mi NW 5.8 mph - N/A   Scattered Clouds
5:54 PM 61.0 °F - 33.1 °F 35% 30.15 in 10.0 mi Variable 4.6 mph - N/A   Scattered Clouds
6:54 PM 60.1 °F - 33.1 °F 36% 30.16 in 10.0 mi WNW 5.8 mph - N/A   Scattered Clouds
7:54 PM 57.0 °F - 34.0 °F 42% 30.17 in 10.0 mi North 4.6 mph - N/A   Scattered Clouds
8:54 PM 52.0 °F - 36.0 °F 54% 30.17 in 10.0 mi Calm Calm - N/A   Partly Cloudy
9:54 PM 51.1 °F - 37.0 °F 59% 30.19 in 10.0 mi Calm Calm - N/A   Partly Cloudy
10:54 PM 46.9 °F - 39.0 °F 74% 30.19 in 10.0 mi SE 3.5 mph - N/A   Partly Cloudy
11:54 PM 46.0 °F - 39.0 °F 76% 30.19 in 10.0 mi Calm Calm - N/A   Clear